This demonstration page uses our WeatherBlox Daily Observations layout. Learn more.

Left ArrowRight Arrow

39.92423, -83.80882

Hourly Observations for July 20, 2019

Temp ( °F °C ) Dew Point ( °F °C ) Humidity (%) Winds ( mph kmh ) Pressure ( in mb ) Visibility ( mi km ) Precip ( " mm )
12:56 am 00:56 Clear 77 25 76 24.4 96 96 SW 8 13 29.96 1015 10 16.0934 N/A
1:56 am 01:56 Clear 77 25 76 24.4 96 96 WSW 7 11 29.96 1014 10 16.0934 N/A
2:56 am 02:56 Clear 76 24.4 76 24.4 100 100 WSW 6 9 29.96 1015 10 16.0934 N/A
3:56 am 03:56 Clear 76 24.4 76 24.4 100 100 WSW 5 7 29.96 1015 10 16.0934 N/A
4:56 am 04:56 Clear 76 24.4 76 24.4 100 100 WSW 7 11 29.96 1015 10 16.0934 N/A
5:56 am 05:56 Clear 75 23.9 75 23.9 100 100 W 3 6 30 1016 10 16.0934 N/A
6:56 am 06:56 Sunny 74 23.3 74 23.3 100 100 W 5 7 30.03 1017 7 11.26538 N/A
7:56 am 07:56 Sunny with Mist and Fog 77 25 77 25 100 100 SW 7 11 30.01 1016 6 9.65604 N/A
8:56 am 08:56 Mostly Cloudy 79 26.1 78 25.6 97 97 VRB 3 6 29.98 1015 10 16.0934 N/A
9:56 am 09:56 Sunny 82 27.8 78 25.6 88 88 W 5 7 29.99 1016 10 16.0934 N/A
10:49 am 10:49 Mostly Cloudy 84 29 79 26 84 84 S 7 11 29.95 1014 10 16.0934 N/A
10:56 am 10:56 Mostly Cloudy 84 28.9 78 25.6 82 82 S 6 9 29.99 1016 10 16.0934 N/A
11:56 am 11:56 Mostly Cloudy 86 30 79 26.1 80 80 SSW 10 17 29.95 1014 10 16.0934 N/A
12:40 pm 12:40 Partly Cloudy 88 31 79 26 75 75 SW 13 20 29.9 1013 10 16.0934 N/A
12:56 pm 12:56 Mostly Cloudy 88 31.1 78 25.6 73 73 SSW 10 17 29.94 1014 10 16.0934 N/A
1:30 pm 13:30 Mostly Cloudy 90 32 77 25 67 67 S 9 15 29.9 1012 10 16.0934 N/A
1:56 pm 13:56 Partly Cloudy 89 31.7 76 24.4 65 65 SSW 13 20 29.93 1013 10 16.0934 N/A
2:56 pm 14:56 Mostly Sunny 90 32.2 75 23.9 62 62 SW 14 22 29.93 1014 10 16.0934 N/A
3:56 pm 15:56 Mostly Sunny 91 32.8 76 24.4 61 61 SW 12 19 29.93 1013 10 16.0934 N/A
4:56 pm 16:56 Sunny 92 33.3 73 22.8 54 54 WSW 17 28 29.93 1014 10 16.0934 N/A
5:56 pm 17:56 Mostly Sunny 91 32.8 74 23.3 57 57 W 14 22 29.93 1013 10 16.0934 N/A
6:56 pm 18:56 Sunny 90 32.2 75 23.9 62 62 W 14 22 29.93 1014 10 16.0934 N/A
7:56 pm 19:56 Sunny 88 31.1 75 23.9 66 66 W 8 13 29.93 1014 10 16.0934 N/A
8:56 pm 20:56 Sunny 84 28.9 75 23.9 74 74 W 7 11 29.93 1014 10 16.0934 N/A
9:56 pm 21:56 Clear 82 27.8 75 23.9 79 79 SW 3 6 29.94 1014 10 16.0934 N/A
10:56 pm 22:56 Clear 80 26.7 75 23.9 85 85 S 5 7 29.92 1013 10 16.0934 N/A
11:56 pm 23:56 Clear 78 25.6 75 23.9 90 90 S 3 6 29.94 1014 10 16.0934 N/A

Powered by AerisWeather